[[{"header":{"parameterUnit":"m.s-1","parameterCategory":2,"la1":30.2991,"la2":30.254,"lo1":-89.0895,"lo2":-89.0444,"dy":0.0017,"dx":0.0017,"nx":28,"ny":28,"refTime":"2025-07-27T09:00:00:Z","depth":"0","parameterNumber":2,"parameterNumberName":"U-component_of_CURRENTS"},"data":[0,0,0,0,0,0,0,0,0,0,0,0,0,0,0,0,0,0,0,0,0,0,0,0,0,0,0,0,0,0,0,0,0,0,0,0,0,0,0,0,0,0,0,0,0,0,0,0,0,0,0,0,0,0,0,0,0,0,0.171,0.171,0,0.1711,0.1711,0.1711,0.1704,0.1704,0.1704,0.1703,0.176,0.1761,0.1763,0,0,0,0,0,0,0,0,0,0,0,0,0,0.1645,0.1647,0.171,0.171,0.171,0.1711,0.1711,0.1711,0.1704,0.1704,0.1703,0.1703,0.1759,0.1761,0.1763,0,0,0,0,0,0,0,0,0,0,0,0,0,0.1663,0.1647,0.171,0.1707,0.1706,0.1711,0.1711,0.1711,0.1704,0.1704,0.1703,0.1703,0.1759,0.1761,0.1763,0.1785,0,0,0.1771,0.1772,0,0,0,0,0,0,0,0,0.1662,0.1665,0.1707,0.1707,0.1706,0.1707,0.1709,0.1739,0.1704,0.1705,0.1703,0.1703,0.1747,0.1751,0.1751,0.1788,0.179,0.1771,0.1773,0.1774,0.1775,0,0,0,0,0,0,0,0.1661,0.1665,0.171,0.1707,0.1707,0.1685,0.1688,0.1714,0.1729,0.1705,0.1704,0.1704,0.1748,0.1749,0.1752,0.1791,0.1771,0.1774,0.1775,0.1776,0.1922,0.1924,0,0,0,0,0,0,0.1664,0.1664,0.171,0.171,0.1683,0.1687,0.169,0.1707,0.1727,0.173,0.1705,0.1704,0.1744,0.1749,0.1755,0.183,0.1774,0.1776,0.1778,0.192,0.1922,0.1925,0,0,0,0,0,0,0.1663,0.1669,0.171,0.1686,0.169,0.1689,0.1708,0.1707,0.1712,0.1727,0.173,0.171,0.1744,0.1751,0.1795,0.183,0.1778,0.178,0.1917,0.1921,0.1924,0.195,0,0,0,0,0,0,0.1662,0.1669,0.1681,0.1687,0.1691,0.1722,0.1708,0.1708,0.1712,0.1712,0.1733,0.1737,0.1745,0.1791,0.1798,0.1833,0.1782,0.1914,0.1918,0.1923,0.1947,0.1954,0.1961,0,0,0,0,0,0.1659,0.1676,0.1682,0.1687,0.1709,0.1722,0.1723,0.172,0.1713,0.1722,0.1743,0.1737,0.1824,0.1795,0.1802,0.1839,0.1912,0.1917,0.1922,0.1943,0.1953,0.1961,0,0,0,0,0,0,0.164,0.1677,0.1684,0.1707,0.1719,0.1721,0.1723,0.1725,0.1746,0.1746,0.1759,0.1766,0.1821,0.1831,0.1798,0.1898,0.1871,0.1878,0.1885,0.1894,0.1901,0.1906,0.1784,0,0,0,0,0,0.1646,0.1676,0.1696,0.1713,0.172,0.1724,0.1727,0.173,0.1747,0.1754,0.177,0.1802,0.1848,0.1869,0.1902,0.1951,0.1994,0.1984,0.1992,0.1997,0.201,0.2098,0.2114,0.1942,0.1942,0.1942,0,0,0.164,0.1664,0.1679,0.1712,0.1716,0.1737,0.1725,0.1735,0.176,0.176,0.1797,0.1824,0.1868,0.1924,0.1951,0.1936,0.2076,0.2004,0.2008,0.2018,0.2105,0.2122,0.2137,0.1946,0.1945,0.1945,0,0,0.164,0.1667,0.1691,0.1709,0.1729,0.1741,0.1748,0.1762,0.1778,0.1818,0.1836,0.1887,0.1934,0.1981,0.2011,0.2082,0.211,0.2094,0.2134,0.222,0.2234,0.2248,0.2347,0.2369,0.2098,0.2098,0.2098,0,0.1625,0.167,0.1694,0.1718,0.1738,0.1748,0.1773,0.1793,0.1821,0.1857,0.1836,0.1949,0.1968,0.2072,0.209,0.2099,0.2155,0.209,0.2228,0.2242,0.2255,0.2354,0.2377,0.21,0.21,0.21,0.21,0,0.1648,0.1681,0.1692,0.1741,0.1765,0.1787,0.1823,0.1855,0.1874,0.1904,0.1995,0.2027,0.21,0.2117,0.2119,0.2233,0.2247,0.2223,0.2199,0.2274,0.2374,0.2398,0.2103,0.2102,0.2102,0.2101,0,0,0.1617,0.1696,0.1697,0.1736,0.1785,0.181,0.1866,0.1934,0.199,0.2023,0.2108,0.2174,0.2193,0.223,0.2251,0.2314,0.2447,0.2304,0.2308,0.2392,0.266,0.2713,0.2744,0.2443,0.2447,0.245,0.27,0,0.1625,0.1683,0.1724,0.1784,0.1821,0.1869,0.1926,0.1991,0.2046,0.2127,0.219,0.2267,0.2239,0.2278,0.2342,0.2418,0.2509,0.2383,0.2585,0.2592,0.262,0.2773,0.2667,0.2884,0.2724,0.2728,0.2731,0,0.1634,0.1681,0.1739,0.1837,0.1857,0.1896,0.2009,0.2062,0.2179,0.2226,0.2315,0.2358,0.2473,0.2421,0.2612,0.2533,0.2607,0.2659,0.2669,0.2725,0.269,0.2782,0.2934,0.2823,0.2768,0.2765,0.2763,0,0.1613,0.1694,0.1749,0.1777,0.188,0.1927,0.1984,0.2093,0.2176,0.2294,0.2372,0.2488,0.2572,0.2668,0.2769,0.2703,0.2981,0.2904,0.3038,0.3042,0.2997,0.2992,0.3055,0.3064,0.3064,0.3063,0.3062,0,0.1615,0.1657,0.1745,0.1775,0.1862,0.1926,0.2035,0.2104,0.2239,0.2347,0.242,0.2538,0.2636,0.2791,0.2848,0.3049,0.3061,0.3099,0.3129,0.3008,0.3001,0.2935,0.2861,0.3072,0.307,0.3068,0.3067,0,0.1581,0.1635,0.1709,0.1815,0.1854,0.1912,0.2067,0.2151,0.2266,0.2412,0.2458,0.2633,0.2828,0.2957,0.3146,0.3184,0.3261,0.3401,0.3265,0.3274,0.3259,0.3191,0.323,0.314,0.3593,0.3596,0.3599,0,0.1571,0.1603,0.172,0.1776,0.1825,0.1929,0.2007,0.2144,0.224,0.2467,0.2541,0.2779,0.2943,0.3277,0.3385,0.3574,0.3411,0.3579,0.343,0.3303,0.3248,0.3077,0.2982,0.339,0.339,0.3391,0.3391,0,0.1561,0.1597,0.1665,0.1769,0.1854,0.1957,0.2074,0.2162,0.2319,0.2461,0.2665,0.282,0.3139,0.3299,0.3554,0.363,0.3392,0.36,0.3494,0.3146,0.2938,0.2848,0.3185,0.3396,0.3396,0.3395,0.3395,0.3395,0.1557,0.1597,0.1686,0.1781,0.1872,0.1964,0.2035,0.2167,0.2324,0.2505,0.2675,0.2869,0.3122,0.3472,0.3544,0.3565,0.3493,0.346,0.3412,0.3269,0.3102,0.3478,0.3696,0.3697,0.3698,0.3699,0.37,0,0.1571,0.162,0.17,0.1812,0.1881,0.1937,0.2068,0.2128,0.2268,0.2457,0.2633,0.2876,0.3085,0.326,0.3407,0.335,0.3173,0.3268,0.295,0.2883,0.326,0.3166,0.3246,0.3246,0.3246,0.3246,0.3246,0.3247,0.1589,0.1658,0.1694,0.1795,0.1858,0.193,0.1985,0.207,0.2198,0.2369,0.2493,0.2639,0.2901,0.3144,0.3155,0.3099,0.2825,0.2768,0.2728,0.293,0.2939,0.2949,0.2842,0.2853,0.2852,0.2215,0.221,0.2206]},{"header":{"parameterUnit":"m.s-1","parameterCategory":2,"la1":30.2991,"la2":30.254,"lo1":-89.0895,"lo2":-89.0444,"dy":0.0017,"dx":0.0017,"nx":28,"ny":28,"refTime":"2025-07-27T09:00:00:Z","depth":"0","parameterNumber":3,"parameterNumberName":"V-component_of_CURRENTS"},"data":[0,0,0,0,0,0,0,0,0,0,0,0,0,0,0,0,0,0,0,0,0,0,0,0,0,0,0,0,0,0,0,0,0,0,0,0,0,0,0,0,0,0,0,0,0,0,0,0,0,0,0,0,0,0,0,0,0,0,0.0027,0.0027,0,0.0038,0.0038,0.0039,0.0006,0.0004,0.0003,0.0002,-0.0046,-0.0047,-0.0047,0,0,0,0,0,0,0,0,0,0,0,0,0,0.004,0.0039,0.0027,0.0027,0.0027,0.0038,0.0038,0.0039,0.0006,0.0004,0.0003,0.0002,-0.0046,-0.0047,-0.0047,0,0,0,0,0,0,0,0,0,0,0,0,0,0.0041,0.0039,0.0027,0.0012,0.0011,0.0038,0.0038,0.0039,0.0006,0.0004,0.0003,0.0001,-0.0046,-0.0046,-0.0047,-0.0019,0,0,-0.0049,-0.0049,0,0,0,0,0,0,0,0,0.0041,0.004,0.0014,0.0013,0.0012,0.0019,0.0025,0.0016,0.0006,0.0008,0.0002,0.0001,-0.0029,-0.0031,-0.0024,-0.0022,-0.0024,-0.0049,-0.0049,-0.0049,-0.0049,0,0,0,0,0,0,0,0.0041,0.004,0.0031,0.0014,0.0013,0.0027,0.0024,0.0024,-0.0003,0.0008,0.0005,0.0007,-0.003,-0.0024,-0.0026,-0.0024,-0.0049,-0.0049,-0.0049,-0.005,-0.007,-0.0071,0,0,0,0,0,0,0.0037,0.004,0.0031,0.0032,0.0023,0.0027,0.0025,0.0018,-0.0002,-0.0006,0.0008,0.0005,-0.0022,-0.0025,-0.0028,-0.0048,-0.0049,-0.005,-0.005,-0.007,-0.007,-0.0071,0,0,0,0,0,0,0.0038,0.0036,0.003,0.0036,0.0037,0.0028,0.0021,0.0019,0.0021,-0.0001,-0.0006,0.0011,-0.0023,-0.0027,-0.003,-0.0048,-0.005,-0.005,-0.007,-0.007,-0.007,-0.0054,0,0,0,0,0,0,0.0038,0.0036,0.0034,0.0036,0.0036,0.005,0.0023,0.002,0.0024,0.002,0.0,-0.0006,-0.0025,-0.0029,-0.003,-0.0049,-0.0051,-0.0069,-0.007,-0.007,-0.0055,-0.0054,-0.0054,0,0,0,0,0,0.0038,0.0046,0.0033,0.0032,0.0031,0.0051,0.0053,0.0042,0.0026,0.0036,0.0017,-0.0006,-0.0034,-0.0028,-0.003,-0.005,-0.0069,-0.007,-0.007,-0.0055,-0.0054,-0.0054,0,0,0,0,0,0,0.006,0.0044,0.0029,0.0033,0.0041,0.0045,0.0055,0.0048,0.0045,0.0034,0.0009,0.0003,-0.0014,-0.0024,-0.0018,-0.0058,-0.0062,-0.0063,-0.005,-0.0049,-0.0049,-0.0047,-0.0051,0,0,0,0,0,0.0062,0.0056,0.0052,0.0058,0.0059,0.0057,0.0064,0.0058,0.0054,0.0051,0.0036,0.0011,-0.0014,-0.0025,-0.0041,-0.0045,-0.0061,-0.0065,-0.0065,-0.0064,-0.0065,-0.0099,-0.0101,-0.0072,-0.0072,-0.0072,0,0,0.0075,0.0064,0.0063,0.0061,0.0063,0.0068,0.0057,0.0071,0.0066,0.0047,0.0039,0.002,-0.0013,-0.0031,-0.0041,-0.0044,-0.0079,-0.0065,-0.0064,-0.0065,-0.01,-0.0102,-0.0105,-0.0073,-0.0073,-0.0073,0,0,0.0101,0.0086,0.0088,0.009,0.0091,0.0087,0.009,0.0094,0.0084,0.0086,0.0052,0.003,0.0012,-0.0024,-0.0045,-0.0047,-0.0074,-0.0061,-0.0058,-0.0091,-0.0093,-0.0096,-0.011,-0.0114,-0.0063,-0.0062,-0.0062,0,0.0118,0.0111,0.0099,0.0102,0.0103,0.0092,0.0101,0.0094,0.0096,0.009,0.0082,0.0037,0.0009,-0.0032,-0.0044,-0.0048,-0.0062,-0.0056,-0.009,-0.0093,-0.0096,-0.011,-0.0114,-0.0062,-0.0062,-0.0062,-0.0062,0,0.0141,0.0135,0.0142,0.0126,0.013,0.0142,0.0125,0.0125,0.0111,0.0101,0.0075,0.0044,0.0016,-0.0008,-0.0029,-0.0071,-0.0071,-0.0083,-0.009,-0.0098,-0.0112,-0.0117,-0.0061,-0.0061,-0.0061,-0.0061,0,0,0.0185,0.0161,0.0163,0.0162,0.0143,0.0157,0.0138,0.0131,0.0134,0.0107,0.0106,0.004,0.0029,0.0003,-0.003,-0.0067,-0.0103,-0.0084,-0.0087,-0.0095,-0.0163,-0.0123,-0.0125,-0.0122,-0.0123,-0.0124,-0.016,0,0.0209,0.0215,0.0192,0.0205,0.021,0.0184,0.0179,0.0166,0.0154,0.0153,0.0094,0.0083,0.0029,0.0025,-0.0028,-0.0072,-0.0117,-0.0091,-0.0157,-0.0158,-0.012,-0.013,-0.0121,-0.015,-0.0165,-0.0166,-0.0167,0,0.0239,0.0238,0.0247,0.0245,0.0247,0.0249,0.0248,0.0243,0.0216,0.0209,0.0169,0.0142,0.0079,0.0043,-0.0063,-0.0042,-0.0108,-0.0152,-0.0154,-0.0127,-0.0128,-0.0147,-0.0159,-0.0328,-0.0175,-0.0174,-0.0174,0,0.0283,0.0282,0.029,0.0287,0.0279,0.028,0.0277,0.0262,0.0285,0.0248,0.0272,0.0183,0.0175,0.0062,-0.0024,-0.0049,-0.0121,-0.0165,-0.0198,-0.0195,-0.0205,-0.0201,-0.0386,-0.0255,-0.0255,-0.0255,-0.0255,0,0.0316,0.033,0.0315,0.0321,0.0356,0.0327,0.0368,0.0349,0.0359,0.0401,0.0309,0.0337,0.018,0.013,0.0006,-0.0086,-0.01,-0.0196,-0.0205,-0.0197,-0.0191,-0.0352,-0.0437,-0.0256,-0.0256,-0.0256,-0.0255,0,0.0362,0.0346,0.0368,0.0366,0.0375,0.0401,0.0445,0.0485,0.0469,0.0522,0.0518,0.0468,0.0402,0.0264,0.0116,-0.001,-0.0203,-0.016,-0.0122,-0.0127,-0.0331,-0.0413,-0.0555,-0.0615,-0.0223,-0.0223,-0.0222,0,0.0383,0.0392,0.0413,0.0448,0.045,0.0492,0.0535,0.0538,0.0591,0.0615,0.0656,0.0617,0.0629,0.0443,0.0216,0.0023,-0.0147,-0.0127,-0.019,-0.0341,-0.0441,-0.0489,-0.0534,-0.0199,-0.0199,-0.0198,-0.0198,0,0.0431,0.0433,0.0459,0.0525,0.0574,0.064,0.0698,0.0763,0.0777,0.0835,0.0901,0.0918,0.0751,0.0593,0.0333,0.0157,-0.0231,-0.0119,-0.0305,-0.0458,-0.0496,-0.0556,-0.0166,-0.0192,-0.0193,-0.0193,-0.0193,-0.0194,0.0477,0.0512,0.0548,0.0616,0.0685,0.0779,0.0849,0.0934,0.1042,0.1148,0.1129,0.1212,0.0912,0.0578,0.0315,-0.0179,-0.0171,-0.0346,-0.0438,-0.0476,-0.053,-0.0105,-0.0119,-0.0119,-0.0119,-0.0119,-0.0119,0,0.0533,0.0573,0.0642,0.0727,0.082,0.0834,0.0957,0.1046,0.1191,0.1337,0.1427,0.137,0.0991,0.0549,-0.0096,-0.0437,-0.0588,-0.0646,-0.0763,-0.0798,-0.0456,-0.0453,-0.0503,-0.0503,-0.0503,-0.0503,-0.0503,-0.0502,0.0569,0.0638,0.067,0.0825,0.0895,0.1018,0.1093,0.1233,0.1371,0.1598,0.1705,0.1757,0.1398,0.0199,-0.0617,-0.0811,-0.1064,-0.1088,-0.1208,-0.1039,-0.102,-0.1002,-0.1022,-0.1191,-0.1192,-0.1512,-0.1515,-0.1518]}],[{"header":{"parameterUnit":"m.s-1","parameterCategory":2,"la1":30.2991,"la2":30.254,"lo1":-89.0895,"lo2":-89.0444,"dy":0.0017,"dx":0.0017,"nx":28,"ny":28,"refTime":"2025-07-27T09:00:00:Z","depth":"2","parameterNumber":2,"parameterNumberName":"U-component_of_CURRENTS"},"data":[0,0,0,0,0,0,0,0,0,0,0,0,0,0,0,0,0,0,0,0,0,0,0,0,0,0,0,0,0,0,0,0,0,0,0,0,0,0,0,0,0,0,0,0,0,0,0,0,0,0,0,0,0,0,0,0,0,0,0.1056,0.1056,0,0.1063,0.1063,0.1063,0.1065,0.1064,0.1064,0.1064,0.1103,0.1105,0.1106,0,0,0,0,0,0,0,0,0,0,0,0,0,0.1079,0.1079,0.1056,0.1056,0.1056,0.1063,0.1063,0.1063,0.1065,0.1064,0.1064,0.1064,0.1103,0.1104,0.1106,0,0,0,0,0,0,0,0,0,0,0,0,0,0.1077,0.1078,0.1056,0.1057,0.1057,0.1063,0.1063,0.1063,0.1065,0.1064,0.1064,0.1064,0.1103,0.1104,0.1106,0.1121,0,0,0.1111,0.1112,0,0,0,0,0,0,0,0,0.1077,0.1076,0.1056,0.1057,0.1057,0.1062,0.1086,0.1084,0.1065,0.1062,0.1064,0.1064,0.1092,0.1095,0.1097,0.1123,0.1124,0.1111,0.1113,0.1113,0.1114,0,0,0,0,0,0,0,0.1077,0.1076,0.1059,0.1056,0.1057,0.1069,0.1068,0.1085,0.108,0.1063,0.1063,0.1062,0.1092,0.1095,0.1098,0.1125,0.1111,0.1113,0.1114,0.1115,0.1191,0.1192,0,0,0,0,0,0,0.1072,0.1076,0.1059,0.1059,0.1066,0.1069,0.1068,0.1061,0.1079,0.1081,0.1062,0.1062,0.1093,0.1096,0.11,0.1153,0.1113,0.1115,0.1116,0.119,0.1191,0.1192,0,0,0,0,0,0,0.1073,0.1071,0.1059,0.1068,0.1067,0.1068,0.1061,0.1061,0.1072,0.1078,0.1081,0.1073,0.1093,0.1097,0.1143,0.1153,0.1116,0.1117,0.1189,0.119,0.1192,0.1238,0,0,0,0,0,0,0.1073,0.1071,0.1069,0.1067,0.1066,0.1069,0.1061,0.1062,0.1071,0.1071,0.1088,0.1091,0.1093,0.1141,0.1145,0.1155,0.1119,0.1187,0.1189,0.1191,0.1235,0.1241,0.1245,0,0,0,0,0,0.1074,0.1069,0.1068,0.1067,0.1061,0.107,0.1071,0.1072,0.1072,0.1081,0.1108,0.1091,0.1154,0.1144,0.1149,0.1159,0.1187,0.1189,0.1191,0.1233,0.124,0.1245,0,0,0,0,0,0,0.108,0.1069,0.1068,0.106,0.1068,0.107,0.1074,0.1079,0.1105,0.1109,0.1118,0.1124,0.1164,0.1159,0.1148,0.1185,0.1161,0.1165,0.1192,0.1198,0.1203,0.1245,0.112,0,0,0,0,0,0.1079,0.1071,0.1071,0.1067,0.107,0.1076,0.1081,0.1085,0.1103,0.1113,0.113,0.1148,0.1174,0.1186,0.1204,0.1234,0.1288,0.1238,0.1243,0.1248,0.1284,0.1385,0.1404,0.1199,0.1199,0.1199,0,0,0.1079,0.1073,0.1068,0.1068,0.1072,0.1086,0.1079,0.1089,0.111,0.1115,0.1156,0.1173,0.1188,0.1223,0.1237,0.1222,0.1334,0.125,0.1254,0.129,0.139,0.141,0.1428,0.1201,0.12,0.12,0,0,0.1078,0.1071,0.1067,0.1077,0.1086,0.1095,0.1102,0.1115,0.113,0.1171,0.1183,0.1225,0.1245,0.1274,0.1286,0.1334,0.1362,0.1315,0.1374,0.147,0.1489,0.1506,0.1603,0.1628,0.1313,0.1313,0.1313,0,0.108,0.1077,0.1071,0.1079,0.1096,0.1103,0.1123,0.1138,0.117,0.1214,0.1188,0.1281,0.1275,0.1356,0.1362,0.1348,0.1412,0.1347,0.1481,0.1499,0.1516,0.1611,0.1639,0.1315,0.1315,0.1315,0.1314,0,0.108,0.1086,0.1088,0.1101,0.1122,0.1139,0.1163,0.1199,0.1219,0.1253,0.1338,0.1352,0.142,0.14,0.1393,0.1502,0.1513,0.1481,0.1471,0.154,0.1635,0.1663,0.1319,0.1318,0.1317,0.1316,0,0,0.1073,0.1084,0.1087,0.1111,0.114,0.1162,0.1212,0.1281,0.1349,0.1375,0.1476,0.1501,0.1536,0.1555,0.1551,0.1614,0.1762,0.1599,0.1603,0.1707,0.2,0.1862,0.1879,0.1761,0.1765,0.1769,0.2019,0,0.1082,0.1097,0.111,0.1156,0.1178,0.1222,0.1278,0.1347,0.1407,0.1504,0.1549,0.1625,0.1584,0.1621,0.1689,0.1746,0.1839,0.1699,0.1909,0.1916,0.1794,0.1908,0.176,0.1957,0.2046,0.2051,0.2054,0,0.1086,0.1102,0.1133,0.1207,0.1225,0.1261,0.1389,0.1443,0.1577,0.1632,0.1738,0.1773,0.1886,0.1818,0.2011,0.1929,0.199,0.2021,0.2031,0.1914,0.183,0.1901,0.2005,0.2101,0.2098,0.2094,0.2091,0,0.1089,0.113,0.1159,0.1177,0.1252,0.1305,0.1366,0.1494,0.1567,0.1729,0.1801,0.1946,0.2018,0.2125,0.2182,0.2124,0.2386,0.231,0.2262,0.2253,0.2174,0.2148,0.2483,0.2482,0.2482,0.2481,0.248,0,0.1101,0.113,0.1163,0.1182,0.126,0.132,0.1434,0.1524,0.1664,0.1775,0.187,0.1977,0.2099,0.2234,0.2281,0.2369,0.2485,0.2323,0.2322,0.218,0.2153,0.2301,0.2277,0.249,0.2488,0.2487,0.2485,0,0.1102,0.1113,0.1154,0.1226,0.1254,0.1317,0.1443,0.153,0.1665,0.1814,0.1864,0.2052,0.2217,0.2325,0.2512,0.248,0.2574,0.2579,0.2396,0.2365,0.2359,0.2334,0.2568,0.2566,0.2564,0.2562,0.256,0,0.1101,0.1115,0.1169,0.1195,0.1226,0.1318,0.1383,0.152,0.1611,0.1848,0.1917,0.2118,0.2213,0.2431,0.2473,0.2571,0.2603,0.2451,0.2279,0.24,0.2377,0.2354,0.2333,0.2222,0.2217,0.2214,0.2211,0,0.1111,0.1119,0.1149,0.1193,0.1245,0.1314,0.1417,0.148,0.1656,0.1757,0.1923,0.2009,0.2211,0.2238,0.2344,0.2364,0.2406,0.2375,0.2639,0.2165,0.2077,0.2051,0.2042,0.2181,0.2184,0.2187,0.2188,0.2189,0.1111,0.113,0.1153,0.1203,0.125,0.1307,0.1359,0.145,0.1554,0.1701,0.1835,0.1922,0.2024,0.2079,0.2085,0.2113,0.2229,0.2148,0.2159,0.2173,0.2031,0.1937,0.1993,0.1994,0.1996,0.1997,0.1999,0,0.1112,0.113,0.1168,0.1214,0.1246,0.1281,0.1378,0.1401,0.1469,0.1599,0.1685,0.1626,0.1684,0.1806,0.1793,0.1782,0.177,0.1726,0.1716,0.1748,0.1776,0.1612,0.1464,0.1462,0.146,0.1458,0,0,0.1108,0.1133,0.1154,0.1194,0.1223,0.1249,0.1287,0.1282,0.1353,0.1368,0.142,0.1597,0.1723,0.1558,0.1563,0.1514,0.1606,0.1462,0.19,0.192,0.1944,0.204,0.1825,0,0,0,0,0]},{"header":{"parameterUnit":"m.s-1","parameterCategory":2,"la1":30.2991,"la2":30.254,"lo1":-89.0895,"lo2":-89.0444,"dy":0.0017,"dx":0.0017,"nx":28,"ny":28,"refTime":"2025-07-27T09:00:00:Z","depth":"2","parameterNumber":3,"parameterNumberName":"V-component_of_CURRENTS"},"data":[0,0,0,0,0,0,0,0,0,0,0,0,0,0,0,0,0,0,0,0,0,0,0,0,0,0,0,0,0,0,0,0,0,0,0,0,0,0,0,0,0,0,0,0,0,0,0,0,0,0,0,0,0,0,0,0,0,0,0.0291,0.029,0,0.0209,0.0208,0.0207,0.0168,0.0168,0.0168,0.0168,0.0051,0.0048,0.0045,0,0,0,0,0,0,0,0,0,0,0,0,0,0.035,0.0349,0.0291,0.029,0.0289,0.0209,0.0208,0.0207,0.0168,0.0168,0.0168,0.0168,0.0053,0.0049,0.0045,0,0,0,0,0,0,0,0,0,0,0,0,0,0.0301,0.0349,0.0291,0.026,0.0257,0.021,0.0208,0.0207,0.0168,0.0168,0.0168,0.0168,0.0054,0.0049,0.0044,0.0012,0,0,0.003,0.0028,0,0,0,0,0,0,0,0,0.0304,0.0299,0.0266,0.0262,0.0258,0.02,0.0186,0.014,0.0168,0.0201,0.0168,0.0168,0.0098,0.009,0.0074,0.0007,0.0002,0.0029,0.0026,0.0024,0.0023,0,0,0,0,0,0,0,0.0308,0.0302,0.0258,0.0265,0.026,0.0229,0.0223,0.0177,0.0149,0.0198,0.0195,0.0187,0.0096,0.0078,0.007,0.0,0.003,0.0025,0.0022,0.002,-0.0136,-0.0137,0,0,0,0,0,0,0.0322,0.0306,0.0261,0.0256,0.0283,0.0228,0.0221,0.0218,0.015,0.014,0.0187,0.0186,0.0086,0.0076,0.0066,0.0021,0.0024,0.002,0.0017,-0.0134,-0.0136,-0.0137,0,0,0,0,0,0,0.0324,0.0319,0.0264,0.0279,0.027,0.0228,0.0224,0.0216,0.0194,0.0142,0.0131,0.0172,0.0086,0.0073,0.0016,0.0017,0.0018,0.0013,-0.0133,-0.0135,-0.0137,-0.0067,0,0,0,0,0,0,0.0326,0.032,0.0323,0.028,0.027,0.0238,0.0223,0.0214,0.0189,0.0186,0.0126,0.0115,0.0085,0.0023,0.0011,0.001,0.001,-0.0131,-0.0134,-0.0136,-0.0068,-0.0066,-0.0065,0,0,0,0,0,0.0328,0.033,0.0324,0.0318,0.0275,0.0238,0.0229,0.0199,0.0189,0.0179,0.0132,0.0117,-0.0001,0.0018,0.0004,0.0002,-0.013,-0.0133,-0.0136,-0.0068,-0.0066,-0.0065,0,0,0,0,0,0,0.0354,0.0325,0.0317,0.031,0.0279,0.0232,0.0222,0.0197,0.0153,0.0149,0.01,0.0085,0.0035,-0.0001,0.0021,-0.0055,-0.0068,-0.0074,-0.0012,-0.0011,-0.001,0.0041,0.0006,0,0,0,0,0,0.0363,0.0359,0.0322,0.0316,0.0305,0.0263,0.0244,0.0222,0.0177,0.0159,0.0114,0.0061,0.0012,-0.0013,-0.0063,-0.0104,-0.0115,-0.0118,-0.0117,-0.0115,-0.0087,-0.0107,-0.0103,-0.0147,-0.0147,-0.0147,0,0,0.037,0.0355,0.0351,0.0321,0.0298,0.0279,0.0252,0.0225,0.0208,0.0151,0.0112,0.0062,-0.0001,-0.0045,-0.007,-0.0073,-0.0115,-0.0119,-0.0116,-0.0089,-0.0109,-0.0104,-0.01,-0.0149,-0.0148,-0.0148,0,0,0.0376,0.0371,0.0365,0.0345,0.0313,0.0289,0.0283,0.0234,0.0215,0.0167,0.0123,0.008,-0.0004,-0.0035,-0.0065,-0.009,-0.011,-0.012,-0.0065,-0.0085,-0.008,-0.0076,-0.0095,-0.0093,-0.0115,-0.0114,-0.0114,0,0.0384,0.0377,0.0356,0.0345,0.0336,0.0297,0.0288,0.0259,0.0196,0.0194,0.0162,0.0066,0.0008,-0.0023,-0.0035,-0.008,-0.0096,-0.0058,-0.0077,-0.0073,-0.007,-0.0091,-0.009,-0.0112,-0.0112,-0.0112,-0.0112,0,0.0377,0.0378,0.0374,0.0354,0.0341,0.0326,0.0294,0.0277,0.0249,0.0228,0.019,0.0114,0.0068,0.0031,-0.0011,-0.0021,-0.0042,-0.0072,-0.0066,-0.006,-0.0085,-0.0084,-0.0107,-0.0108,-0.0109,-0.011,0,0,0.0372,0.0371,0.0369,0.0379,0.0349,0.034,0.0328,0.0316,0.0334,0.0267,0.028,0.0187,0.0167,0.0131,0.0071,0.0053,0.0044,0.0008,0.0005,0.0017,0.0004,-0.0093,-0.0102,0.0015,0.0016,0.0016,-0.0025,0,0.0371,0.0373,0.0369,0.0376,0.0377,0.0366,0.0367,0.0358,0.0347,0.0349,0.0293,0.0268,0.0197,0.0178,0.0148,0.0073,0.005,0.0059,-0.0027,-0.0029,-0.0092,-0.0104,-0.0074,-0.0115,-0.0025,-0.0025,-0.0025,0,0.0354,0.0367,0.0379,0.0415,0.0417,0.0421,0.0453,0.045,0.0455,0.0451,0.0434,0.0386,0.0343,0.0277,0.0184,0.0192,0.011,0.0051,0.0047,-0.0058,-0.0125,-0.0108,-0.0118,-0.0024,-0.0024,-0.0024,-0.0024,0,0.0355,0.0375,0.0398,0.0401,0.0426,0.0448,0.0467,0.0487,0.0514,0.0525,0.0542,0.0488,0.0458,0.0362,0.0224,0.0206,0.0127,0.008,-0.008,-0.0088,-0.0086,-0.0095,0.0023,0.0023,0.0023,0.0023,0.0024,0,0.0345,0.0364,0.041,0.0418,0.0469,0.0482,0.0544,0.056,0.0604,0.0654,0.0599,0.0611,0.0479,0.0405,0.0273,0.01,0.0159,-0.0061,-0.0104,-0.0068,-0.0075,-0.0013,-0.0017,0.0022,0.0022,0.0023,0.0023,0,0.0324,0.035,0.0383,0.0437,0.0466,0.0501,0.0589,0.0636,0.0677,0.0738,0.074,0.0709,0.0611,0.0467,0.0317,0.0156,0.0006,-0.0071,-0.0024,-0.0063,-0.0207,-0.0207,-0.0255,-0.0259,-0.0262,-0.0265,-0.0267,0,0.0311,0.0325,0.0395,0.0433,0.046,0.0531,0.0585,0.0656,0.0716,0.0793,0.0818,0.0761,0.0688,0.0432,0.0202,-0.0039,-0.0039,-0.0202,-0.0253,-0.0199,-0.0235,-0.023,-0.0226,-0.0217,-0.0219,-0.022,-0.0221,0,0.0291,0.0315,0.0346,0.0426,0.0491,0.0571,0.066,0.0721,0.0813,0.0866,0.091,0.0859,0.0631,0.0392,0.0067,-0.0094,-0.0167,-0.0245,-0.017,-0.0174,-0.0173,-0.0206,-0.02,-0.0233,-0.0232,-0.0231,-0.0231,-0.023,0.0281,0.0299,0.0353,0.043,0.0504,0.0606,0.0697,0.0792,0.0893,0.1008,0.0951,0.0911,0.0649,0.0229,-0.0034,-0.0279,-0.0292,-0.0395,-0.0385,-0.0375,-0.0387,-0.0394,-0.0496,-0.0497,-0.0497,-0.0497,-0.0497,0,0.0283,0.0314,0.0366,0.0465,0.0548,0.0605,0.075,0.0865,0.1001,0.105,0.1071,0.082,0.0522,0.027,-0.0127,-0.043,-0.0399,-0.0491,-0.0375,-0.0364,-0.0354,-0.0358,-0.0463,-0.0463,-0.0464,-0.0464,0,0,0.0291,0.0331,0.0361,0.0493,0.0578,0.0743,0.0846,0.1002,0.1094,0.1148,0.1131,0.1014,0.0632,0.0359,-0.0003,-0.0216,-0.0216,-0.0258,-0.0264,-0.0074,-0.0059,-0.0289,-0.0286,0,0,0,0,0]}],[{"header":{"parameterUnit":"m.s-1","parameterCategory":2,"la1":30.2991,"la2":30.254,"lo1":-89.0895,"lo2":-89.0444,"dy":0.0017,"dx":0.0017,"nx":28,"ny":28,"refTime":"2025-07-27T09:00:00:Z","depth":"4","parameterNumber":2,"parameterNumberName":"U-component_of_CURRENTS"},"data":[0,0,0,0,0,0,0,0,0,0,0,0,0,0,0,0,0,0,0,0,0,0,0,0,0,0,0,0,0,0,0,0,0,0,0,0,0,0,0,0,0,0,0,0,0,0,0,0,0,0,0,0,0,0,0,0,0,0,0.0499,0.0499,0,0.0512,0.0512,0.0512,0.0538,0.0538,0.0539,0.0539,0.054,0.0539,0.0539,0,0,0,0,0,0,0,0,0,0,0,0,0,0.0465,0.0466,0.0499,0.0499,0.0499,0.0512,0.0512,0.0512,0.0538,0.0538,0.0539,0.0539,0.054,0.054,0.0539,0,0,0,0,0,0,0,0,0,0,0,0,0,0.0479,0.0466,0.0499,0.0513,0.0515,0.0512,0.0512,0.0512,0.0538,0.0538,0.0539,0.054,0.054,0.054,0.0539,0.052,0,0,0.0537,0.0537,0,0,0,0,0,0,0,0,0.0478,0.0481,0.0511,0.0512,0.0514,0.0524,0.05,0.0514,0.0537,0.0529,0.0539,0.054,0.0533,0.0533,0.0534,0.052,0.052,0.0537,0.0536,0.0536,0.0536,0,0,0,0,0,0,0,0.0478,0.048,0.0504,0.0511,0.0513,0.0509,0.0512,0.0503,0.0526,0.053,0.0532,0.0533,0.0534,0.0534,0.0534,0.052,0.0537,0.0536,0.0536,0.0536,0.0544,0.0545,0,0,0,0,0,0,0.0477,0.0479,0.0504,0.0504,0.0498,0.0509,0.0512,0.052,0.0527,0.0529,0.0532,0.0534,0.0535,0.0535,0.0534,0.0564,0.0536,0.0535,0.0535,0.0544,0.0544,0.0545,0,0,0,0,0,0,0.0476,0.0479,0.0503,0.0491,0.0494,0.0509,0.0517,0.052,0.0546,0.0529,0.053,0.0558,0.0536,0.0535,0.0552,0.0562,0.0535,0.0535,0.0543,0.0544,0.0545,0.0591,0,0,0,0,0,0,0.0475,0.0479,0.0491,0.0492,0.0495,0.0513,0.0516,0.0519,0.0543,0.0547,0.0551,0.055,0.0536,0.0554,0.0552,0.0561,0.0534,0.0542,0.0543,0.0544,0.0588,0.0593,0.0597,0,0,0,0,0,0.0474,0.0482,0.0491,0.0495,0.0509,0.0514,0.0515,0.0527,0.0544,0.0554,0.0566,0.0551,0.0559,0.0554,0.0551,0.0561,0.0541,0.0543,0.0544,0.0586,0.0592,0.0597,0,0,0,0,0,0,0.0474,0.0486,0.0496,0.0509,0.0518,0.0518,0.0532,0.0542,0.056,0.0574,0.0563,0.0563,0.0579,0.0566,0.056,0.0567,0.0546,0.0547,0.0579,0.0584,0.0589,0.0593,0.0533,0,0,0,0,0,0.0479,0.0491,0.05,0.0512,0.0522,0.0534,0.0542,0.0554,0.0564,0.0575,0.0586,0.0588,0.0578,0.0581,0.0575,0.0581,0.0572,0.0585,0.0589,0.0593,0.0595,0.0595,0.0599,0.055,0.055,0.055,0,0,0.0483,0.049,0.0498,0.0513,0.0526,0.0541,0.0542,0.0565,0.0581,0.057,0.0613,0.0609,0.0584,0.0592,0.0598,0.0586,0.0604,0.0595,0.0598,0.0598,0.0597,0.0601,0.0606,0.0551,0.055,0.055,0,0,0.0489,0.0507,0.0521,0.053,0.0553,0.056,0.0574,0.06,0.062,0.0649,0.0641,0.0651,0.0653,0.0635,0.0621,0.0646,0.0629,0.0645,0.0669,0.0669,0.0673,0.0677,0.068,0.0683,0.0646,0.0646,0.0646,0,0.0496,0.051,0.0524,0.0538,0.0556,0.0574,0.0599,0.061,0.0642,0.0662,0.0672,0.0685,0.0669,0.0657,0.0663,0.0656,0.0656,0.0651,0.0675,0.0678,0.0681,0.0683,0.0686,0.0648,0.0648,0.0648,0.0647,0,0.0509,0.0525,0.0535,0.0563,0.0586,0.0605,0.063,0.0663,0.0698,0.0711,0.074,0.0727,0.0733,0.0723,0.0698,0.0703,0.0698,0.0683,0.0663,0.0689,0.0689,0.0692,0.0651,0.0651,0.065,0.0649,0,0,0.0517,0.0539,0.0545,0.056,0.0604,0.0619,0.0663,0.0698,0.0734,0.0761,0.0802,0.0778,0.0787,0.0771,0.0747,0.074,0.0755,0.0723,0.0722,0.0727,0.0764,0.0799,0.0805,0.0749,0.075,0.075,0.076,0,0.0527,0.0546,0.0567,0.06,0.0619,0.0658,0.0704,0.0743,0.0778,0.0822,0.081,0.0838,0.0797,0.0813,0.0795,0.0769,0.0763,0.0755,0.0736,0.0736,0.0765,0.0809,0.0751,0.0761,0.0762,0.0762,0.0762,0,0.0541,0.055,0.0583,0.0628,0.0648,0.0679,0.0762,0.0807,0.086,0.0893,0.091,0.0908,0.0898,0.0871,0.0834,0.0835,0.0804,0.078,0.0779,0.0797,0.0776,0.0727,0.0766,0.0766,0.0765,0.0765,0.0765,0,0.054,0.0565,0.0592,0.0604,0.0662,0.0703,0.0759,0.0836,0.0868,0.0948,0.0973,0.0974,0.0981,0.0944,0.0896,0.087,0.0867,0.0823,0.0823,0.0825,0.0767,0.0763,0.0803,0.0803,0.0803,0.0803,0.0803,0,0.0541,0.0561,0.0589,0.06,0.0652,0.0722,0.0789,0.0854,0.0924,0.0967,0.101,0.1022,0.1,0.0988,0.0933,0.0904,0.0899,0.0842,0.0837,0.0787,0.0785,0.0769,0.0765,0.0804,0.0804,0.0804,0.0804,0,0.0543,0.0556,0.0579,0.0629,0.0649,0.0703,0.0778,0.0823,0.0918,0.0974,0.1001,0.1049,0.1075,0.1051,0.1014,0.096,0.0928,0.0915,0.0891,0.0881,0.0868,0.0866,0.0906,0.0908,0.0909,0.091,0.0911,0,0.0543,0.0553,0.0585,0.0599,0.0623,0.0687,0.0736,0.0819,0.086,0.0975,0.0995,0.1059,0.1085,0.1066,0.105,0.101,0.098,0.0962,0.0886,0.0892,0.0882,0.0878,0.0874,0.0913,0.0913,0.0913,0.0914,0,0.0537,0.0553,0.0566,0.0589,0.0622,0.0649,0.072,0.0724,0.0846,0.0903,0.0984,0.1018,0.1066,0.1065,0.1078,0.1022,0.0976,0.0974,0.0969,0.0896,0.09,0.0888,0.0883,0.0918,0.0917,0.0917,0.0917,0,0.0531,0.0537,0.0549,0.0571,0.0603,0.0623,0.0652,0.0711,0.0754,0.0886,0.0905,0.0998,0.1062,0.1072,0.106,0.1058,0.1011,0.0947,0.0942,0.0938,0.0946,0.0955,0.1,0,0,0,0,0,0.0517,0.0516,0.0529,0.0535,0.0566,0.0584,0.065,0.0684,0.0765,0.0815,0.0864,0.0922,0.0976,0.1007,0.1004,0.1042,0.0992,0.1034,0.091,0.0942,0.0937,0.0946,0,0,0,0,0,0,0.0502,0.0513,0.0512,0.0501,0.0503,0.0528,0.0568,0.0625,0.0658,0.0756,0.0787,0.0874,0.0923,0.0965,0.0985,0.0995,0.0903,0.1086,0.1085,0.0945,0.094,0.0936,0.0944,0,0,0,0,0]},{"header":{"parameterUnit":"m.s-1","parameterCategory":2,"la1":30.2991,"la2":30.254,"lo1":-89.0895,"lo2":-89.0444,"dy":0.0017,"dx":0.0017,"nx":28,"ny":28,"refTime":"2025-07-27T09:00:00:Z","depth":"4","parameterNumber":3,"parameterNumberName":"V-component_of_CURRENTS"},"data":[0,0,0,0,0,0,0,0,0,0,0,0,0,0,0,0,0,0,0,0,0,0,0,0,0,0,0,0,0,0,0,0,0,0,0,0,0,0,0,0,0,0,0,0,0,0,0,0,0,0,0,0,0,0,0,0,0,0,-0.0203,-0.0204,0,-0.025,-0.0251,-0.0251,-0.03,-0.0301,-0.0301,-0.0302,-0.0386,-0.0387,-0.0389,0,0,0,0,0,0,0,0,0,0,0,0,0,-0.0162,-0.0163,-0.0203,-0.0204,-0.0204,-0.025,-0.0251,-0.0252,-0.03,-0.0301,-0.0302,-0.0302,-0.0385,-0.0387,-0.0389,0,0,0,0,0,0,0,0,0,0,0,0,0,-0.0194,-0.0163,-0.0203,-0.0232,-0.0235,-0.025,-0.0251,-0.0252,-0.03,-0.0301,-0.0302,-0.0302,-0.0384,-0.0387,-0.039,-0.0391,0,0,-0.0398,-0.0399,0,0,0,0,0,0,0,0,-0.0192,-0.0195,-0.0228,-0.023,-0.0234,-0.0268,-0.0267,-0.0299,-0.03,-0.0278,-0.0302,-0.0303,-0.0348,-0.0354,-0.0363,-0.0395,-0.0398,-0.0398,-0.04,-0.0401,-0.0401,0,0,0,0,0,0,0,-0.019,-0.0194,-0.0224,-0.0228,-0.0232,-0.0245,-0.0251,-0.0273,-0.031,-0.028,-0.0283,-0.0285,-0.035,-0.036,-0.0366,-0.04,-0.0398,-0.04,-0.0402,-0.0403,-0.0482,-0.0483,0,0,0,0,0,0,-0.0179,-0.0191,-0.0222,-0.0225,-0.0212,-0.0245,-0.0251,-0.0258,-0.0309,-0.0317,-0.0284,-0.0287,-0.0356,-0.0362,-0.0369,-0.0417,-0.0401,-0.0403,-0.0405,-0.0482,-0.0482,-0.0483,0,0,0,0,0,0,-0.0178,-0.0181,-0.022,-0.0207,-0.0213,-0.0245,-0.0252,-0.0259,-0.0286,-0.0312,-0.0321,-0.0306,-0.0356,-0.0365,-0.0399,-0.0419,-0.0404,-0.0407,-0.0481,-0.0482,-0.0483,-0.0486,0,0,0,0,0,0,-0.0176,-0.0181,-0.0187,-0.0207,-0.0213,-0.0228,-0.0251,-0.0259,-0.0284,-0.0289,-0.0334,-0.0341,-0.0358,-0.0395,-0.0402,-0.0422,-0.0409,-0.048,-0.0481,-0.0482,-0.0485,-0.0487,-0.0488,0,0,0,0,0,-0.0175,-0.0175,-0.0187,-0.0191,-0.022,-0.0227,-0.0232,-0.0258,-0.0284,-0.0288,-0.0326,-0.0341,-0.0407,-0.0398,-0.0406,-0.0427,-0.048,-0.0481,-0.0482,-0.0484,-0.0486,-0.0488,0,0,0,0,0,0,-0.0162,-0.0181,-0.0194,-0.0202,-0.0213,-0.0235,-0.0245,-0.0266,-0.0299,-0.0316,-0.0346,-0.0355,-0.0396,-0.0407,-0.0397,-0.0452,-0.0447,-0.0449,-0.0446,-0.0448,-0.0449,-0.0441,-0.0411,0,0,0,0,0,-0.0161,-0.0168,-0.0185,-0.0191,-0.0199,-0.0227,-0.0238,-0.0257,-0.0285,-0.0302,-0.0343,-0.0379,-0.0403,-0.0421,-0.0448,-0.0475,-0.0478,-0.0494,-0.0496,-0.0497,-0.0496,-0.0511,-0.0514,-0.0487,-0.0487,-0.0487,0,0,-0.0159,-0.0168,-0.0174,-0.0189,-0.0206,-0.0208,-0.0237,-0.0256,-0.0264,-0.0305,-0.035,-0.0391,-0.0412,-0.0446,-0.0465,-0.046,-0.0506,-0.0498,-0.0499,-0.0497,-0.0513,-0.0515,-0.0518,-0.0488,-0.0487,-0.0487,0,0,-0.0147,-0.0168,-0.0168,-0.0175,-0.0195,-0.0208,-0.0215,-0.0255,-0.028,-0.032,-0.0353,-0.0401,-0.045,-0.0467,-0.0478,-0.0501,-0.0515,-0.052,-0.052,-0.0536,-0.0538,-0.054,-0.0544,-0.0546,-0.0517,-0.0517,-0.0517,0,-0.0143,-0.0146,-0.0168,-0.0166,-0.0172,-0.0206,-0.0207,-0.0226,-0.0277,-0.0305,-0.0335,-0.043,-0.0454,-0.048,-0.0494,-0.0505,-0.0515,-0.0511,-0.0537,-0.0539,-0.0541,-0.0544,-0.0547,-0.0518,-0.0518,-0.0518,-0.0518,0,-0.013,-0.0132,-0.0133,-0.014,-0.015,-0.0156,-0.018,-0.0213,-0.0263,-0.0297,-0.0367,-0.0416,-0.0471,-0.049,-0.0501,-0.0532,-0.0535,-0.0538,-0.053,-0.0544,-0.0547,-0.0549,-0.0518,-0.0518,-0.0518,-0.0518,0,0,-0.0113,-0.0122,-0.0121,-0.012,-0.014,-0.0144,-0.0164,-0.0192,-0.0219,-0.0294,-0.0341,-0.0402,-0.0461,-0.0477,-0.0511,-0.053,-0.0554,-0.0545,-0.0546,-0.0545,-0.0587,-0.0561,-0.0561,-0.0569,-0.057,-0.057,-0.0582,0,-0.0095,-0.0083,-0.0096,-0.0086,-0.0085,-0.0118,-0.0132,-0.0169,-0.0221,-0.0277,-0.0344,-0.0397,-0.0441,-0.0481,-0.0512,-0.0547,-0.0563,-0.0551,-0.0578,-0.0578,-0.055,-0.0564,-0.0572,-0.0584,-0.0585,-0.0585,-0.0585,0,-0.0075,-0.007,-0.0059,-0.0068,-0.0074,-0.0072,-0.0114,-0.0133,-0.0202,-0.0254,-0.0331,-0.0386,-0.0442,-0.0473,-0.054,-0.0535,-0.0563,-0.0585,-0.0586,-0.0562,-0.0557,-0.057,-0.059,-0.0589,-0.0589,-0.0589,-0.0589,0,-0.0052,-0.0042,-0.0034,-0.0034,-0.005,-0.0059,-0.0077,-0.0135,-0.0149,-0.0237,-0.0263,-0.0362,-0.0396,-0.0463,-0.0529,-0.0536,-0.0593,-0.06,-0.0597,-0.0595,-0.0613,-0.0611,-0.0633,-0.0633,-0.0633,-0.0633,-0.0633,0,-0.0026,-0.0015,-0.0019,-0.0011,-0.0004,-0.0038,-0.0046,-0.0088,-0.0136,-0.0143,-0.0247,-0.0267,-0.0395,-0.0447,-0.0518,-0.0568,-0.0583,-0.0598,-0.0599,-0.0614,-0.0612,-0.0614,-0.0612,-0.0634,-0.0633,-0.0633,-0.0633,0,0.0001,-0.0003,0.0015,0.0008,0.0011,0.0011,0.0007,0.0002,-0.0057,-0.0066,-0.0085,-0.0185,-0.0263,-0.0377,-0.0475,-0.0525,-0.059,-0.0598,-0.0601,-0.0602,-0.0585,-0.0582,-0.0596,-0.0595,-0.0594,-0.0594,-0.0593,0,0.0015,0.0026,0.0042,0.0064,0.0069,0.0075,0.0085,0.0041,0.0049,-0.0001,0.0009,-0.0076,-0.015,-0.026,-0.0406,-0.0543,-0.0556,-0.0585,-0.0598,-0.0582,-0.0582,-0.0581,-0.058,-0.0592,-0.0592,-0.0592,-0.0592,0,0.0048,0.0052,0.0068,0.0115,0.0143,0.0174,0.0191,0.0211,0.0169,0.013,0.0116,0.0023,-0.0065,-0.0216,-0.0329,-0.0429,-0.0574,-0.0579,-0.0581,-0.0593,-0.0578,-0.0578,-0.0578,-0.0589,-0.059,-0.059,-0.059,0,0.0077,0.0097,0.0125,0.0167,0.0214,0.0266,0.0264,0.0289,0.0288,0.0238,0.0237,0.0105,0.0012,-0.0154,-0.026,-0.0366,-0.0389,-0.0407,-0.0418,-0.0423,-0.0384,-0.034,-0.0277,0,0,0,0,0,0.0103,0.0133,0.018,0.0232,0.0285,0.0311,0.0338,0.033,0.031,0.0329,0.0286,0.0203,0.003,-0.0067,-0.016,-0.0265,-0.0425,-0.0379,-0.0455,-0.0577,-0.0579,-0.0563,0,0,0,0,0,0,0.0122,0.0163,0.0188,0.0286,0.0337,0.0396,0.0416,0.0399,0.0405,0.0365,0.0276,0.0204,0.0028,0.0099,-0.015,-0.0192,-0.0247,-0.0478,-0.048,-0.0575,-0.0578,-0.058,-0.0564,0,0,0,0,0]}]]